HS8AFA Weather Reports


time (UTC)temp
C
wind
direction
speed
KPH
gust
KPH
rain 1hr
cm
rain 24hr
cm
rain mn
cm
humidity
%
barometer
mb
20260508141019 28 246 4.8 67.6 0.00 0.00 0.00 100 1010.1
20260508140020 28 292 3.2 62.8 0.00 0.00 0.00 100 1010.0
20260508135035 28 333 3.2 64.4 0.00 0.00 0.00 100 1009.9
20260508134037 28 242 4.8 72.4 0.00 0.00 0.00 100 1009.7
20260508133017 28 240 3.2 62.8 0.00 0.00 0.00 100 1009.5
20260508132039 28 244 3.2 61.2 0.00 0.00 0.00 100 1009.4
20260508131020 28 260 4.8 69.2 0.00 0.00 0.00 100 1009.3
20260508130041 28 335 4.8 69.2 0.00 0.00 0.00 100 1009.2
20260508125018 28 317 4.8 69.2 0.00 0.00 0.00 100 1009.0
20260508124018 29 339 4.8 69.2 0.00 0.00 0.00 100 1008.7
20260508123018 29 327 3.2 66.0 0.00 0.00 0.00 100 1008.5
20260508122019 29 261 3.2 37.0 0.00 0.00 0.00 100 1008.3
20260508121020 29 282 3.2 61.2 0.00 0.00 0.00 100 1008.2
20260508120022 30 275 3.2 67.6 0.00 0.00 0.00 100 1008.1
20260508115021 30 249 4.8 70.8 0.00 0.00 0.00 100 1008.1
20260508114017 30 249 3.2 67.6 0.00 0.00 0.00 100 1008.0
20260508113017 30 240 4.8 69.2 0.00 0.00 0.00 100 1008.1
20260508112018 30 242 4.8 70.8 0.00 0.00 0.00 100 1008.1
20260508111019 30 243 4.8 70.8 0.00 0.00 0.00 100 1008.1
20260508110019 30 241 3.2 25.7 0.00 0.00 0.00 100 1008.0
20260508105020 30 283 4.8 74.0 0.00 0.00 0.00 100 1008.0
20260508104039 30 294 3.2 62.8 0.00 0.00 0.00 100 1007.9
20260508103017 30 249 4.8 69.2 0.00 0.00 0.00 100 1007.8
20260508102039 30 272 3.2 66.0 0.00 0.00 0.00 100 1007.7
20260508101018 30 248 4.8 70.8 0.00 0.00 0.00 100 1007.7
20260508100040 31 254 4.8 69.2 0.00 0.00 0.00 100 1007.6
20260508095020 31 244 4.8 67.6 0.00 0.00 0.00 100 1007.4
20260508094016 31 255 3.2 64.4 0.00 0.00 0.00 100 1007.4
20260508093016 31 245 4.8 72.4 0.00 0.00 0.00 100 1007.5
20260508092018 31 324 3.2 53.1 0.00 0.00 0.00 100 1007.8
20260508091020 30 298 4.8 69.2 0.00 0.00 0.00 100 1008.0
20260508090020 30 255 3.2 62.8 0.00 0.00 0.00 100 1007.7
20260508085020 30 243 3.2 66.0 0.00 0.00 0.00 100 1007.4
20260508084016 30 243 4.8 67.6 0.00 0.00 0.00 100 1007.4
20260508083018 30 283 4.8 67.6 0.00 0.00 0.00 100 1007.4
20260508082017 29 335 4.8 75.6 0.00 0.00 0.00 100 1007.4
20260508081018 29 337 4.8 69.2 0.00 0.00 0.00 100 1007.5
20260508080041 29 302 3.2 67.6 0.00 0.00 0.00 100 1007.8
20260508075020 29 343 3.2 66.0 0.00 0.00 0.00 100 1008.0
20260508074016 29 324 4.8 69.2 0.00 0.00 0.00 100 1008.1
20260508073016 30 330 4.8 70.8 0.00 0.00 0.00 100 1008.5
20260508072017 30 326 3.2 66.0 0.00 0.00 0.00 100 1008.9
20260508071018 30 285 3.2 25.7 0.00 0.00 0.00 100 1008.9
20260508070020 30 298 3.2 64.4 0.00 0.00 0.00 100 1008.9
20260508065020 30 293 3.2 66.0 0.00 0.00 0.00 100 1009.1
20260508064020 30 347 4.8 69.2 0.00 0.00 0.00 100 1009.4
20260508063018 30 350 4.8 74.0 0.00 0.00 0.00 100 1009.6
20260508062018 31 352 3.2 53.1 0.00 0.00 0.00 100 1010.1
20260508061018 32 343 4.8 69.2 0.00 0.00 0.00 100 1010.0
20260508060019 32 355 4.8 69.2 0.00 0.00 0.00 100 1009.9
20260508055019 33 336 4.8 70.8 0.00 0.00 0.00 100 1009.3
20260508054021 33 307 3.2 35.4 0.00 0.00 0.00 100 1009.5
20260508053038 32 339 3.2 62.8 0.00 0.00 0.00 100 1009.7
20260508052017 32 339 4.8 72.4 0.00 0.00 0.00 100 1009.9
20260508051017 32 341 3.2 66.0 0.00 0.00 0.00 100 1010.3
20260508050019 32 343 4.8 75.6 0.00 0.00 0.00 100 1010.3
20260508045020 32 320 4.8 69.2 0.00 0.00 0.00 100 1010.4
20260508044020 32 338 4.8 69.2 0.00 0.00 0.00 100 1010.6
20260508043016 32 326 4.8 72.4 0.00 0.00 0.00 100 1010.7
20260508042037 32 324 4.8 74.0 0.00 0.00 0.00 100 1010.7
20260508041037 31 308 4.8 69.2 0.00 0.00 0.00 100 1010.8
20260508040019 31 335 3.2 61.2 0.00 0.00 0.00 100 1011.0
20260508035019 31 336 3.2 66.0 0.00 0.00 0.00 100 1011.1
20260508034040 31 341 3.2 66.0 0.00 0.00 0.00 100 1011.1
20260508033016 31 337 4.8 70.8 0.00 0.00 0.00 100 1011.0
20260508032017 31 301 3.2 56.3 0.00 0.00 0.00 100 1011.1
20260508031017 30 288 4.8 74.0 0.00 0.00 0.00 100 1011.2
20260508030018 30 277 3.2 56.3 0.00 0.00 0.00 100 1011.4
20260508025019 30 265 3.2 62.8 0.00 0.00 0.00 100 1011.4
20260508024020 30 292 4.8 69.2 0.00 0.00 0.00 100 1011.4
20260508023015 29 303 3.2 59.5 0.00 0.00 0.00 100 1011.4
20260508022017 29 261 3.2 62.8 0.00 0.00 0.00 100 1011.4
20260508021017 29 298 4.8 70.8 0.00 0.00 0.00 100 1011.3
20260508020018 29 329 3.2 64.4 0.00 0.00 0.00 100 1011.3
20260508015019 29 294 4.8 70.8 0.00 0.00 0.00 100 1011.1
20260508014040 29 341 4.8 70.8 0.00 0.00 0.00 100 1011.1
20260508013017 29 352 4.8 74.0 0.00 0.00 0.00 100 1010.9
20260508012036 28 350 4.8 67.6 0.00 0.00 0.00 100 1010.8
20260508011017 28 342 4.8 74.0 0.00 0.00 0.00 100 1010.7
20260508010018 28 333 4.8 72.4 0.00 0.00 0.00 100 1010.6
20260508005019 27 339 4.8 69.2 0.00 0.00 0.00 100 1010.6
20260508004019 27 343 3.2 66.0 0.00 0.00 0.00 100 1010.4
20260508003021 27 340 3.2 66.0 0.00 0.00 0.00 100 1010.3
20260508002038 26 294 3.2 51.5 0.00 0.00 0.00 100 1010.1
20260508001018 26 256 4.8 70.8 0.00 0.00 0.00 100 1010.1
20260508000039 26 259 3.2 41.8 0.00 0.00 0.00 100 1009.9
20260507235020 26 252 3.2 66.0 0.00 0.00 0.00 100 1009.8
20260507234039 26 244 4.8 69.2 0.00 0.00 0.00 100 1009.7
20260507233020 26 255 4.8 67.6 0.00 0.00 0.00 100 1009.6
20260507232016 26 252 3.2 59.5 0.00 0.00 0.00 100 1009.5
20260507231016 26 263 3.2 64.4 0.00 0.00 0.00 100 1009.4
20260507230017 26 260 4.8 70.8 0.00 0.00 0.00 100 1009.4
20260507225018 26 245 4.8 70.8 0.00 0.00 0.00 100 1009.3
20260507224020 26 249 4.8 72.4 0.00 0.00 0.00 100 1009.1
20260507223022 26 252 4.8 74.0 0.00 0.00 0.00 100 1009.1
20260507222016 26 253 4.8 74.0 0.00 0.00 0.00 100 1009.0
20260507221017 26 257 4.8 69.2 0.00 0.00 0.00 100 1008.9
20260507220038 26 247 4.8 70.8 0.00 0.00 0.00 100 1008.7
20260507215018 26 246 4.8 69.2 0.00 0.00 0.00 100 1008.7
20260507214019 26 248 3.2 57.9 0.00 0.00 0.00 100 1008.6
20260507213021 26 246 3.2 64.4 0.00 0.00 0.00 100 1008.6
20260507212017 26 249 3.2 30.6 0.00 0.00 0.00 100 1008.5
20260507211037 26 249 3.2 62.8 0.00 0.00 0.00 100 1008.5
20260507210037 26 252 3.2 66.0 0.00 0.00 0.00 100 1008.4
20260507205018 26 245 4.8 69.2 0.00 0.00 0.00 100 1008.4
20260507204019 26 266 3.2 66.0 0.00 0.00 0.00 100 1008.4
20260507203020 26 248 3.2 67.6 0.00 0.00 0.00 100 1008.3
20260507202015 26 244 4.8 74.0 0.00 0.00 0.00 100 1008.3
20260507201018 26 255 4.8 67.6 0.00 0.00 0.00 100 1008.2
20260507200018 26 248 4.8 69.2 0.00 0.00 0.00 100 1008.3
20260507195020 27 251 3.2 66.0 0.00 0.00 0.00 100 1008.5
20260507194019 27 250 4.8 67.6 0.00 0.00 0.00 100 1008.6
20260507193019 27 248 4.8 72.4 0.00 0.00 0.00 100 1008.7
20260507192036 27 245 4.8 72.4 0.00 0.00 0.00 100 1008.9
20260507191017 27 263 4.8 72.4 0.00 0.00 0.00 100 1009.1
20260507190018 27 256 4.8 72.4 0.00 0.00 0.00 100 1009.3
20260507185019 27 243 3.2 54.7 0.00 0.00 0.00 100 1009.4
20260507184019 27 244 4.8 69.2 0.00 0.00 0.00 100 1009.4
20260507183020 27 248 4.8 69.2 0.00 0.00 0.00 100 1009.6
20260507182037 27 247 3.2 48.3 0.00 0.00 0.00 100 1009.8
20260507181017 27 270 4.8 70.8 0.00 0.00 0.00 100 1009.8
20260507180017 27 340 4.8 67.6 0.00 0.00 0.00 100 1009.9
20260507175039 27 261 4.8 67.6 0.00 0.00 0.00 100 1009.9
20260507174019 27 251 4.8 69.2 0.00 0.00 0.00 100 1010.1
20260507173021 27 250 3.2 64.4 0.00 0.00 0.00 100 1010.2
20260507172057 27 256 3.2 45.1 0.00 0.00 0.00 100 1010.3
20260507171036 27 258 4.8 69.2 0.00 0.00 0.00 100 1010.3
20260507170022 27 260 4.8 67.6 0.00 0.00 0.00 100 1010.4
20260507165019 27 254 4.8 74.0 0.00 0.00 0.00 100 1010.5
20260507164040 27 257 4.8 69.2 0.00 0.00 0.00 100 1010.5
20260507163019 27 252 4.8 70.8 0.00 0.00 0.00 100 1010.6
20260507162016 27 249 3.2 49.9 0.00 0.00 0.00 100 1010.6
20260507161016 27 251 4.8 72.4 0.00 0.00 0.00 100 1010.5
20260507160017 27 255 4.8 72.4 0.00 0.00 0.00 100 1010.6
20260507155018 27 250 4.8 69.2 0.00 0.00 0.00 100 1010.6
20260507154019 27 247 3.2 64.4 0.00 0.00 0.00 100 1010.5
20260507153020 27 250 3.2 66.0 0.00 0.00 0.00 100 1010.5
20260507152036 27 243 4.8 70.8 0.00 0.00 0.00 100 1010.5
20260507151016 27 252 3.2 51.5 0.00 0.00 0.00 100 1010.4
20260507150017 27 265 3.2 64.4 0.00 0.00 0.00 100 1010.4
20260507145018 27 259 4.8 67.6 0.00 0.00 0.00 100 1010.4
20260507144019 27 258 3.2 64.4 0.00 0.00 0.00 100 1010.5
20260507143039 27 263 4.8 74.0 0.00 0.00 0.00 100 1010.6
20260507142016 27 247 4.8 74.0 0.00 0.00 0.00 100 1010.7